| time (UTC) | temp F | wind direction | speed MPH | gust MPH | rain 1hr in | rain 24hr in | rain mn in | humidity % | barometer mb |
| 20260507190344 | 55 | 267 | 9.0 | 20.0 | 0.00 | 0.32 | 0.00 | 39 | 1005.6 |
| 20260507184827 | 56 | 284 | 9.0 | 20.0 | 0.00 | 0.32 | 0.00 | 39 | 1005.5 |
| 20260507183345 | 56 | 318 | 10.0 | 18.0 | 0.00 | 0.35 | 0.00 | 40 | 1005.7 |
| 20260507181825 | 56 | 260 | 12.0 | 20.0 | 0.00 | 0.35 | 0.00 | 39 | 1005.8 |
| 20260507180323 | 54 | 248 | 3.0 | 17.0 | 0.00 | 0.35 | 0.00 | 41 | 1005.9 |
| 20260507174826 | 56 | 277 | 14.0 | 25.0 | 0.00 | 0.35 | 0.00 | 39 | 1005.7 |
| 20260507173323 | 55 | 304 | 12.0 | 21.0 | 0.00 | 0.36 | 0.00 | 42 | 1006.1 |
| 20260507171823 | 54 | 209 | 18.0 | 25.0 | 0.00 | 0.36 | 0.00 | 44 | 1006.0 |
| 20260507170339 | 54 | 273 | 13.0 | 25.0 | 0.00 | 0.36 | 0.00 | 43 | 1006.2 |
| 20260507164838 | 54 | 305 | 12.0 | 19.0 | 0.00 | 0.36 | 0.00 | 47 | 1006.4 |
| 20260507163400 | 52 | 254 | 13.0 | 26.0 | 0.00 | 0.36 | 0.00 | 51 | 1006.6 |
| 20260507161839 | 52 | 273 | 12.0 | 24.0 | 0.00 | 0.36 | 0.00 | 60 | 1006.8 |
| 20260507160336 | 53 | 238 | 12.0 | 19.0 | 0.00 | 0.36 | 0.00 | 59 | 1006.9 |
| 20260507154835 | 52 | 232 | 13.0 | 21.0 | 0.00 | 0.36 | 0.00 | 61 | 1006.9 |
| 20260507153333 | 52 | 275 | 14.0 | 27.0 | 0.00 | 0.36 | 0.00 | 62 | 1007.1 |
| 20260507151838 | 51 | 210 | 12.0 | 23.0 | 0.00 | 0.36 | 0.00 | 65 | 1007.2 |
| 20260507150357 | 52 | 225 | 11.0 | 23.0 | 0.00 | 0.36 | 0.00 | 67 | 1007.4 |
| 20260507144834 | 51 | 265 | 14.0 | 22.0 | 0.00 | 0.36 | 0.00 | 65 | 1007.3 |
| 20260507143331 | 53 | 216 | 12.0 | 21.0 | 0.00 | 0.36 | 0.00 | 61 | 1006.9 |
| 20260507141835 | 52 | 249 | 10.0 | 18.0 | 0.00 | 0.36 | 0.00 | 62 | 1007.0 |
| 20260507140333 | 52 | 309 | 7.0 | 15.0 | 0.00 | 0.36 | 0.00 | 64 | 1007.0 |
| 20260507134833 | 53 | 205 | 6.0 | 9.0 | 0.00 | 0.36 | 0.00 | 66 | 1007.1 |
| 20260507133331 | 51 | 209 | 3.0 | 4.0 | 0.00 | 0.36 | 0.00 | 70 | 1007.4 |
| 20260507131853 | 50 | 222 | 5.0 | 9.0 | 0.00 | 0.36 | 0.00 | 71 | 1007.6 |
| 20260507130334 | 50 | 238 | 4.0 | 8.0 | 0.00 | 0.36 | 0.00 | 70 | 1007.7 |
| 20260507124834 | 50 | 213 | 4.0 | 5.0 | 0.00 | 0.36 | 0.00 | 72 | 1007.5 |
| 20260507123331 | 48 | 221 | 2.0 | 4.0 | 0.00 | 0.36 | 0.00 | 73 | 1007.5 |
| 20260507121831 | 47 | 184 | 3.0 | 5.0 | 0.00 | 0.36 | 0.00 | 75 | 1007.7 |
| 20260507120332 | 47 | 234 | 3.0 | 5.0 | 0.00 | 0.36 | 0.00 | 79 | 1007.8 |
| 20260507114832 | 45 | 222 | 2.0 | 6.0 | 0.00 | 0.36 | 0.00 | 84 | 1007.8 |
| 20260507113351 | 45 | 248 | 3.0 | 4.0 | 0.00 | 0.36 | 0.00 | 82 | 1007.5 |
| 20260507111830 | 44 | 232 | 3.0 | 5.0 | 0.00 | 0.36 | 0.00 | 86 | 1007.6 |
| 20260507110327 | 43 | 283 | 0.0 | 2.0 | 0.00 | 0.36 | 0.00 | 89 | 1007.5 |
| 20260507104832 | 42 | 60 | 2.0 | 5.0 | 0.00 | 0.36 | 0.00 | 91 | 1007.3 |
| 20260507103328 | 41 | 211 | 0.0 | 2.0 | 0.00 | 0.36 | 0.00 | 91 | 1007.7 |
| 20260507101849 | 41 | 63 | 1.0 | 3.0 | 0.00 | 0.36 | 0.00 | 90 | 1007.6 |
| 20260507100325 | 42 | 230 | 0.0 | 2.0 | 0.00 | 0.36 | 0.00 | 87 | 1007.6 |
| 20260507094825 | 42 | 276 | 1.0 | 4.0 | 0.00 | 0.36 | 0.00 | 85 | 1007.4 |
| 20260507093326 | 42 | 252 | 3.0 | 4.0 | 0.00 | 0.36 | 0.00 | 84 | 1007.3 |
| 20260507091847 | 42 | 267 | 2.0 | 4.0 | 0.00 | 0.36 | 0.00 | 85 | 1007.1 |
| 20260507090323 | 42 | 286 | 0.0 | 2.0 | 0.00 | 0.36 | 0.00 | 89 | 1007.3 |
| 20260507084823 | 42 | 318 | 1.0 | 4.0 | 0.00 | 0.36 | 0.00 | 87 | 1007.0 |
| 20260507083324 | 42 | 265 | 1.0 | 4.0 | 0.00 | 0.36 | 0.00 | 90 | 1007.2 |
| 20260507081824 | 43 | 56 | 2.0 | 3.0 | 0.00 | 0.36 | 0.00 | 90 | 1007.2 |
| 20260507080321 | 44 | 66 | 3.0 | 4.0 | 0.00 | 0.36 | 0.00 | 86 | 1007.1 |
| 20260507074843 | 44 | 225 | 3.0 | 7.0 | 0.00 | 0.36 | 0.00 | 83 | 1006.7 |
| 20260507073341 | 45 | 284 | 4.0 | 8.0 | 0.00 | 0.36 | 0.00 | 84 | 1006.5 |
| 20260507071824 | 45 | 295 | 3.0 | 9.0 | 0.00 | 0.36 | 0.00 | 86 | 1006.7 |
| 20260507070343 | 45 | 259 | 2.0 | 7.0 | 0.00 | 0.36 | 0.00 | 87 | 1006.6 |
| 20260507064842 | 45 | 213 | 5.0 | 7.0 | 0.00 | 0.36 | 0.00 | 89 | 1006.7 |
| 20260507063338 | 45 | 252 | 7.0 | 19.0 | 0.00 | 0.36 | 0.00 | 88 | 1006.3 |
| 20260507061838 | 46 | 252 | 4.0 | 9.0 | 0.00 | 0.36 | 0.00 | 89 | 1006.1 |
| 20260507060341 | 46 | 254 | 5.0 | 10.0 | 0.00 | 0.36 | 0.00 | 90 | 1006.1 |
| 20260507054840 | 46 | 277 | 3.0 | 8.0 | 0.00 | 0.36 | 0.00 | 89 | 1006.0 |
| 20260507053337 | 46 | 260 | 3.0 | 7.0 | 0.00 | 0.36 | 0.00 | 90 | 1005.9 |
| 20260507051837 | 47 | 252 | 5.0 | 9.0 | 0.00 | 0.36 | 0.00 | 90 | 1006.0 |
| 20260507050338 | 47 | 269 | 4.0 | 11.0 | 0.00 | 0.36 | 0.00 | 88 | 1005.8 |
| 20260507044839 | 47 | 202 | 5.0 | 11.0 | 0.01 | 0.36 | 0.00 | 88 | 1006.0 |
| 20260507043337 | 47 | 268 | 4.0 | 14.0 | 0.01 | 0.36 | 0.36 | 88 | 1005.6 |
| 20260507041837 | 48 | 292 | 5.0 | 14.0 | 0.02 | 0.36 | 0.36 | 88 | 1006.0 |
| 20260507040339 | 49 | 338 | 3.0 | 8.0 | 0.02 | 0.36 | 0.36 | 90 | 1005.9 |
| 20260507034839 | 50 | 293 | 4.0 | 8.0 | 0.01 | 0.35 | 0.35 | 90 | 1005.8 |
| 20260507033337 | 50 | 268 | 5.0 | 10.0 | 0.01 | 0.35 | 0.35 | 91 | 1005.6 |
| 20260507031837 | 51 | 302 | 4.0 | 10.0 | 0.00 | 0.34 | 0.34 | 93 | 1005.8 |
| 20260507030335 | 52 | 281 | 5.0 | 10.0 | 0.00 | 0.34 | 0.34 | 93 | 1005.3 |
| 20260507024840 | 53 | 217 | 9.0 | 15.0 | 0.00 | 0.34 | 0.34 | 93 | 1005.2 |
| 20260507023335 | 53 | 244 | 7.0 | 10.0 | 0.00 | 0.34 | 0.34 | 93 | 1005.2 |
| 20260507021833 | 54 | 227 | 5.0 | 8.0 | 0.00 | 0.34 | 0.34 | 93 | 1005.2 |
| 20260507020329 | 55 | 237 | 5.0 | 9.0 | 0.01 | 0.34 | 0.34 | 93 | 1005.0 |
| 20260507014834 | 55 | 227 | 5.0 | 7.0 | 0.01 | 0.34 | 0.34 | 93 | 1004.9 |
| 20260507013331 | 56 | 221 | 2.0 | 8.0 | 0.01 | 0.34 | 0.34 | 92 | 1005.0 |
| 20260507011829 | 57 | 271 | 5.0 | 9.0 | 0.01 | 0.34 | 0.34 | 92 | 1005.0 |
| 20260507010325 | 57 | 256 | 4.0 | 6.0 | 0.00 | 0.33 | 0.33 | 92 | 1005.0 |
| 20260507004828 | 57 | 136 | 1.0 | 2.0 | 0.05 | 0.33 | 0.33 | 92 | 1004.8 |
| 20260507003324 | 57 | 215 | 2.0 | 4.0 | 0.05 | 0.33 | 0.33 | 93 | 1004.7 |
| 20260507001845 | 57 | 263 | 3.0 | 6.0 | 0.05 | 0.33 | 0.33 | 93 | 1004.7 |
| 20260507000323 | 57 | 280 | 1.0 | 6.0 | 0.05 | 0.33 | 0.33 | 93 | 1004.6 |
| 20260506234843 | 57 | 154 | 4.0 | 8.0 | 0.01 | 0.28 | 0.28 | 93 | 1004.5 |
| 20260506233323 | 57 | 59 | 4.0 | 10.0 | 0.01 | 0.28 | 0.28 | 92 | 1004.3 |
| 20260506231823 | 58 | 194 | 4.0 | 10.0 | 0.01 | 0.28 | 0.28 | 92 | 1004.4 |
| 20260506230341 | 58 | 119 | 4.0 | 11.0 | 0.01 | 0.28 | 0.28 | 92 | 1004.2 |
| 20260506224841 | 58 | 132 | 3.0 | 10.0 | 0.01 | 0.27 | 0.27 | 93 | 1004.2 |
| 20260506223321 | 58 | 156 | 4.0 | 11.0 | 0.02 | 0.27 | 0.27 | 93 | 1004.5 |
| 20260506221842 | 58 | 79 | 6.0 | 12.0 | 0.03 | 0.27 | 0.27 | 92 | 1004.5 |
| 20260506220402 | 58 | 118 | 5.0 | 11.0 | 0.05 | 0.27 | 0.27 | 92 | 1004.6 |
| 20260506214841 | 58 | 166 | 4.0 | 17.0 | 0.06 | 0.26 | 0.26 | 92 | 1004.8 |
| 20260506213336 | 58 | 128 | 3.0 | 8.0 | 0.05 | 0.25 | 0.25 | 92 | 1004.9 |
| 20260506211840 | 58 | 93 | 3.0 | 9.0 | 0.07 | 0.24 | 0.24 | 92 | 1005.1 |
| 20260506210337 | 58 | 157 | 2.0 | 9.0 | 0.09 | 0.22 | 0.22 | 92 | 1005.3 |
| 20260506204834 | 58 | 171 | 5.0 | 10.0 | 0.12 | 0.20 | 0.20 | 92 | 1005.5 |
| 20260506203331 | 58 | 167 | 3.0 | 13.0 | 0.12 | 0.19 | 0.19 | 92 | 1005.7 |
| 20260506201829 | 58 | 251 | 4.0 | 11.0 | 0.12 | 0.17 | 0.17 | 92 | 1005.8 |
| 20260506200328 | 59 | 200 | 3.0 | 13.0 | 0.09 | 0.13 | 0.13 | 92 | 1005.6 |
| 20260506194849 | 59 | 223 | 2.0 | 11.0 | 0.04 | 0.08 | 0.08 | 92 | 1005.9 |
| 20260506193345 | 59 | 144 | 5.0 | 11.0 | 0.02 | 0.06 | 0.06 | 92 | 1006.2 |
| 20260506191823 | 59 | 199 | 6.0 | 16.0 | 0.02 | 0.05 | 0.05 | 92 | 1006.2 |